Weather History for Springfield, VT

Change the Weather History Date:

Sunday, December 15, 2013

  Actual Average Record
Temperature  
Mean Temperature 20 °F 26 °F  
Max Temperature 27 °F 34 °F 51 °F (1998)
Min Temperature 12 °F 17 °F -7 °F (2005)
Degree Days  
Heating Degree Days 45 39  
Month to date heating degree days 593 549  
Since 1 July heating degree days 2293 2192  
Cooling Degree Days 0 0  
Month to date cooling degree days 0  
Year to date cooling degree days 345  
Moisture  
Dew Point 14 °F    
Average Humidity 77    
Maximum Humidity 92    
Minimum Humidity 62    
Precipitation  
Precipitation T in 0.10 in 0.79 in (2008)
Month to date precipitation 0.06 1.68  
Year to date precipitation 35.47 42.26  
Sea Level Pressure  
Sea Level Pressure 29.75 in    
Wind  
Wind Speed 2 mph (NNE)    
Max Wind Speed 13 mph    
Max Gust Speed 20 mph    
Visibility 4 miles    
Events Fog , Snow    
T = Trace of Precipitation, MM = Missing Value Source: NWS Daily Summary

Daily Weather History Graph

Daily Weather History Graph

Search for Another Location

Airport:

Trip Planner

Search our weather history database for the weather conditions in past years. The results will help you decide how hot, cold, wet, or windy it might be!

Date:

Astronomy

Dec. 15, 2013 Rise Set
Actual Time 7:15 AM EST 4:15 PM EST
Civil Twilight 6:43 AM EST 4:47 PM EST
Nautical Twilight 6:07 AM EST 5:23 PM EST
Astronomical Twilight 5:32 AM EST 5:58 PM EST
Moon 3:19 PM EST (12/15) 5:27 AM EST (12/15)
Length of Visible Light 10h 04m
Length of Day
8h 59m
Waxing Gibbous, 97% of the Moon is Illuminated
Dec 15
Waxing Gibbous
Dec 17
Full
Dec 25
Last Quarter
Jan 1
New
Jan 7
First Quarter

Hourly Weather History & Observations

Time (EST) Temp. Windchill Dew Point Humidity Pressure Visibility Wind Dir Wind Speed Gust Speed Precip Events Conditions
12:54 AM 12.0 °F - 10.0 °F 92% 30.15 in 0.5 mi Calm Calm - 0.00 in Fog , Snow Snow
1:07 AM 12.0 °F - 9.0 °F 88% 30.09 in 0.2 mi Calm Calm - 0.00 in Fog , Snow Heavy Snow
1:21 AM 12.9 °F 5.2 °F 10.0 °F 88% 30.08 in 0.5 mi NNE 4.6 mph - 0.00 in Fog , Snow Snow
1:35 AM 12.9 °F 6.9 °F 10.0 °F 88% 30.06 in 1.0 mi ENE 3.5 mph - 0.00 in Snow Light Snow
1:38 AM 12.9 °F 5.2 °F 10.0 °F 88% 30.05 in 0.8 mi NNE 4.6 mph - 0.00 in Snow Light Snow
1:54 AM 12.9 °F 5.2 °F 10.0 °F 88% 30.09 in 0.8 mi NNE 4.6 mph - 0.00 in Snow Light Snow
2:09 AM 12.9 °F 3.8 °F 10.0 °F 88% 30.04 in 1.0 mi Variable 5.8 mph - 0.00 in Snow Light Snow
2:20 AM 14.0 °F 5.1 °F 10.0 °F 84% 30.02 in 0.5 mi Variable 5.8 mph - 0.00 in Fog , Snow Snow
2:42 AM 14.0 °F 5.1 °F 10.0 °F 84% 30.00 in 1.0 mi ENE 5.8 mph - 0.00 in Snow Light Snow
2:54 AM 14.0 °F 3.9 °F 10.0 °F 84% 30.03 in 0.8 mi ENE 6.9 mph - 0.00 in Snow Light Snow
3:04 AM 14.0 °F 5.1 °F 10.9 °F 88% 29.98 in 0.5 mi Variable 5.8 mph - 0.00 in Fog , Snow Snow
3:18 AM 14.0 °F - 10.9 °F 88% 29.94 in 0.2 mi Calm Calm - 0.00 in Fog , Snow Heavy Snow
3:30 AM 14.0 °F - 10.9 °F 88% 29.92 in 0.2 mi Calm Calm - 0.00 in Fog , Snow Heavy Snow
3:47 AM 14.0 °F 8.2 °F 10.9 °F 88% 29.88 in 0.5 mi Variable 3.5 mph - 0.00 in Fog , Snow Snow
3:54 AM 14.0 °F 8.2 °F 10.9 °F 88% 29.92 in 0.8 mi Variable 3.5 mph - 0.00 in Snow Light Snow
4:18 AM 15.1 °F 5.2 °F 12.0 °F 88% 29.82 in 1.0 mi Variable 6.9 mph - 0.00 in Snow Light Snow
4:54 AM 15.1 °F 7.7 °F 10.9 °F 84% 29.80 in 1.0 mi NE 4.6 mph - 0.00 in Snow Light Snow
5:12 AM 16.0 °F 10.4 °F 12.0 °F 84% 29.76 in 1.5 mi Variable 3.5 mph - 0.00 in Snow Light Snow
5:54 AM 15.1 °F 7.7 °F 12.9 °F 91% 29.76 in 1.8 mi ENE 4.6 mph - 0.00 in Snow Light Snow
6:20 AM 16.0 °F - 12.9 °F 88% 29.70 in 2.0 mi Calm Calm - 0.00 in Snow Light Snow
6:35 AM 15.1 °F - 12.9 °F 91% 29.69 in 1.5 mi Calm Calm - 0.00 in Snow Light Snow
6:51 AM 15.8 °F - 12.2 °F 86% 29.67 in 1.5 mi Calm Calm - 0.00 in Snow Light Snow
6:54 AM 16.0 °F - 12.9 °F 88% 29.72 in 1.5 mi Calm Calm - 0.00 in Snow Light Snow
7:52 AM 15.8 °F - 12.2 °F 86% 29.64 in 3.0 mi Calm Calm - 0.00 in Snow Light Snow
7:54 AM 16.0 °F - 14.0 °F 92% 29.68 in 3.0 mi Calm Calm - 0.00 in Snow Light Snow
8:04 AM 16.0 °F - 14.0 °F 92% 29.62 in 1.8 mi Calm Calm - 0.00 in Snow Light Snow
8:43 AM 17.1 °F - 15.1 °F 92% 29.60 in 2.5 mi Calm Calm - 0.00 in Snow Light Snow
8:54 AM 17.1 °F - 15.1 °F 92% 29.62 in 1.8 mi Calm Calm - 0.00 in Snow Light Snow
9:28 AM 18.0 °F - 16.0 °F 92% 29.58 in 0.8 mi Calm Calm - 0.00 in Snow Light Snow
9:43 AM 18.0 °F - 16.0 °F 92% 29.57 in 1.0 mi Calm Calm - 0.00 in Snow Light Snow
9:54 AM 18.0 °F - 16.0 °F 92% 29.60 in 1.0 mi Calm Calm - 0.00 in Snow Light Snow
10:54 AM 19.9 °F - 18.0 °F 92% 29.57 in 2.0 mi Calm Calm - 0.00 in Snow Light Snow
11:02 AM 19.9 °F - 18.0 °F 92% 29.52 in 1.5 mi Calm Calm - 0.00 in Snow Light Snow
11:49 AM 21.2 °F - 19.4 °F 93% 29.50 in 3.0 mi Calm Calm - 0.00 in Snow Light Snow
11:50 AM 21.9 °F - 19.0 °F 89% 29.54 in 3.0 mi Calm Calm - 0.00 in Snow Light Snow
12:00 PM 21.9 °F - 19.0 °F 89% 29.50 in 6.0 mi Calm Calm - 0.00 in   Overcast
12:54 PM 24.1 °F - 19.9 °F 84% 29.53 in 10.0 mi Calm Calm - 0.00 in   Overcast
1:54 PM 25.0 °F - 21.0 °F 85% 29.52 in 10.0 mi Calm Calm - N/A   Overcast
2:54 PM 26.1 °F - 19.9 °F 78% 29.55 in 10.0 mi Calm Calm - N/A   Overcast
3:31 PM 26.1 °F 17.6 °F 19.0 °F 75% 29.55 in 10.0 mi West 8.1 mph - N/A   Overcast
3:54 PM 26.1 °F 21.9 °F 19.0 °F 75% 29.60 in 10.0 mi WNW 3.5 mph - N/A   Overcast
4:05 PM 26.1 °F - 19.0 °F 75% 29.57 in 10.0 mi Calm Calm - N/A   Overcast
4:54 PM 21.9 °F - 18.0 °F 85% 29.62 in 9.0 mi Calm Calm - N/A   Overcast
5:54 PM 21.9 °F 17.2 °F 19.0 °F 89% 29.63 in 10.0 mi East 3.5 mph - N/A   Overcast
6:54 PM 24.1 °F - 19.9 °F 84% 29.65 in 10.0 mi Calm Calm - N/A   Overcast
7:54 PM 26.1 °F 19.4 °F 16.0 °F 66% 29.67 in 10.0 mi SSW 5.8 mph - N/A   Mostly Cloudy
8:54 PM 25.0 °F 14.2 °F 14.0 °F 63% 29.67 in 10.0 mi West 11.5 mph 16.1 mph N/A   Clear
9:54 PM 19.9 °F - 12.9 °F 74% 29.70 in 10.0 mi Calm Calm - N/A   Clear
10:54 PM 18.0 °F - 12.0 °F 78% 29.71 in 10.0 mi Calm Calm - N/A   Mostly Cloudy
11:54 PM 16.0 °F 10.4 °F 14.0 °F 92% 29.72 in 10.0 mi West 3.5 mph - N/A   Overcast